Zurück zum Katalog

FENGYUN 1C DEB

AktivSSO
NORAD 30850·DEBRIS·🇨🇳 China

Gestartet May 10, 1999 von Taiyuan Satellite Launch Center

Loading…

Nächste Überflüge (nächste 24 Stunden)

TLE

AktuellSource: Space-Track

Epoche: Sep 14, 2026, 12:58 UTC

1 30850U 99025AWL 26257.54089017  .00002353  00000-0  11001-2 0  9995
2 30850  98.3834 112.7575 0108732 117.7273 273.3035 14.18090268997052

Verfolge FENGYUN 1C DEB in Echtzeit mit AllMySat

Download on the App Store